GLOBALSTAR M001 1 25162U 98008A 26034.40619731 -.00000070 00000+0 20325-3 0 9999 2 25162 52.0058 20.2319 0001644 32.3735 123.5826 12.38226602272351 GLOBALSTAR M004 1 25163U 98008B 26034.49736389 -.00000078 00000+0 14599-3 0 9992 2 25163 52.0004 68.4700 0003522 88.1770 57.8809 12.63413904290920 GLOBALSTAR M002 1 25164U 98008C 26034.40092818 -.00000073 00000+0 64090-4 0 9993 2 25164 52.0040 20.4701 0001309 201.9375 158.1389 11.61515115210932 GLOBALSTAR M003 1 25165U 98008D 26034.50741590 -.00000211 00000+0 -12961-2 0 9996 2 25165 51.9859 247.8228 0008867 41.5431 322.4405 12.12030544261278 GLOBALSTAR M014 1 25306U 98023A 26034.10445692 -.00000045 00000+0 60151-3 0 9999 2 25306 51.9853 299.5856 0001777 61.8104 78.4249 11.65484142218095 GLOBALSTAR M006 1 25307U 98023B 26034.36413906 -.00000083 00000+0 -15715-3 0 9990 2 25307 51.9972 0.0399 0002911 163.1076 356.4808 11.58176365243613 GLOBALSTAR M015 1 25308U 98023C 26034.49307411 -.00000112 00000+0 -87858-3 0 9998 2 25308 51.9822 108.7927 0013378 128.1511 330.7457 11.48862045220666 GLOBALSTAR M008 1 25309U 98023D 26034.36536481 -.00000079 00000+0 13498-3 0 9996 2 25309 51.9950 247.8047 0002031 322.5068 209.4270 12.36080210266432 GLOBALSTAR M023 1 25621U 99004A 26034.29680304 -.00000053 00000+0 28240-3 0 9992 2 25621 52.0109 69.6997 0009359 277.2046 164.1224 12.62516374244923 GLOBALSTAR M040 1 25622U 99004B 26034.53527074 -.00000082 00000+0 12034-3 0 9990 2 25622 51.9919 73.4677 0001246 161.6239 349.7632 12.62028150244469 GLOBALSTAR M036 1 25623U 99004C 26034.28954971 -.00000053 00000+0 42695-3 0 9997 2 25623 52.0000 351.1725 0010715 131.8479 16.1708 11.86618254206416 GLOBALSTAR M038 1 25624U 99004D 26034.46573229 -.00000066 00000+0 24147-3 0 9997 2 25624 51.9969 125.5078 0002372 159.9462 281.5670 12.32540342230895 GLOBALSTAR M022 1 25649U 99012A 26034.42681074 -.00000105 00000+0 -21750-3 0 9999 2 25649 52.0064 22.2797 0002455 268.2232 258.8304 12.02509335204191 GLOBALSTAR M041 1 25650U 99012B 26034.00214724 -.00000054 00000+0 40774-3 0 9998 2 25650 52.0010 271.9270 0002190 65.9499 294.1566 11.96683488205914 GLOBALSTAR M046 1 25651U 99012C 26034.28292306 -.00000064 00000+0 26821-3 0 9999 2 25651 52.0083 324.3725 0002228 6.1987 157.8858 12.09417097211624 GLOBALSTAR M037 1 25652U 99012D 26034.51409219 -.00000099 00000+0 27036-4 0 9997 2 25652 51.9982 199.5695 0001753 12.2501 28.5208 12.62460944240499 GLOBALSTAR M045 1 25676U 99019A 26034.38223921 -.00000054 00000+0 35154-3 0 9999 2 25676 51.9994 6.3072 0000318 21.8213 144.1489 12.27072212221778 GLOBALSTAR M019 1 25677U 99019B 26034.48788663 -.00000031 00000+0 61268-3 0 9990 2 25677 51.9861 152.6507 0002113 87.2392 351.2951 12.13879638213238 GLOBALSTAR M044 1 25678U 99019C 26034.52782199 -.00000114 00000+0 -42394-3 0 9996 2 25678 51.9963 132.8394 0006907 125.0328 248.3020 11.90263327198872 GLOBALSTAR M042 1 25679U 99019D 26034.53543748 -.00000108 00000+0 -14778-3 0 9991 2 25679 52.0011 117.8444 0003240 69.0651 33.6363 12.22095474213540 GLOBALSTAR M025 1 25770U 99031A 26034.31194191 -.00000066 00000+0 40530-4 0 9995 2 25770 51.9854 343.8529 0001987 155.5984 1.6495 11.22561192507660 GLOBALSTAR M049 1 25771U 99031B 26034.43392396 -.00000029 00000+0 12487-2 0 9993 2 25771 51.9898 29.9512 0002863 52.5306 307.5751 11.12121632143154 GLOBALSTAR M047 1 25772U 99031C 26034.33823683 -.00000064 00000+0 15520-3 0 9992 2 25772 51.9866 5.0547 0016310 300.7553 59.1647 11.31931929497286 GLOBALSTAR M052 1 25773U 99031D 26034.51559253 -.00000094 00000+0 -94168-3 0 9991 2 25773 51.9858 135.1893 0003051 177.6362 267.0890 11.15063630504314 GLOBALSTAR M035 1 25851U 99037A 26034.00599410 .00000003 00000+0 25204-2 0 9999 2 25851 51.9925 260.2183 0013886 1.0839 147.8356 11.04541767121760 GLOBALSTAR M032 1 25852U 99037B 26034.41110156 -.00000133 00000+0 -21168-2 0 9992 2 25852 51.9957 68.5562 0012836 195.6934 164.3469 11.19068334160678 GLOBALSTAR M051 1 25853U 99037C 26034.43825080 -.00000092 00000+0 -50274-3 0 9999 2 25853 51.9762 203.0261 0001160 95.4763 264.6180 11.42200074158812 GLOBALSTAR M030 1 25854U 99037D 26034.30365114 -.00000109 00000+0 -71622-3 0 9992 2 25854 51.9911 354.7572 0003723 90.5584 269.5659 11.55108475176756 GLOBALSTAR M048 1 25872U 99041A 26034.53382581 -.00000074 00000+0 -99396-4 0 9999 2 25872 51.9357 146.7721 0013061 220.9322 223.7530 11.33861932151225 GLOBALSTAR M026 1 25873U 99041B 26034.36477993 -.00000162 00000+0 -36214-2 0 9999 2 25873 52.0045 14.9326 0001800 301.3001 209.2620 11.06840967174088 GLOBALSTAR M043 1 25874U 99041C 26034.07203646 -.00000015 00000+0 15761-2 0 9990 2 25874 51.9384 264.7148 0013597 349.3132 163.8385 11.25697539148870 GLOBALSTAR M028 1 25875U 99041D 26033.97282836 -.00000090 00000+0 63601-4 0 9998 2 25875 51.9598 224.8949 0062768 211.9442 147.7606 12.50595578219051 GLOBALSTAR M024 1 25883U 99043A 26034.49933633 -.00000014 00000+0 17895-2 0 9993 2 25883 51.9973 218.6994 0002667 104.2649 281.8773 11.10168668140557 GLOBALSTAR M027 1 25884U 99043B 26034.12163228 -.00000047 00000+0 62589-3 0 9996 2 25884 52.0234 304.0804 0021765 5.5297 354.5733 11.04373584166754 GLOBALSTAR M054 1 25885U 99043C 26034.43757756 -.00000077 00000+0 -13513-3 0 9993 2 25885 52.0164 31.8602 0004772 214.0065 302.1535 11.39223531145409 GLOBALSTAR M053 1 25886U 99043D 26034.36401263 -.00000056 00000+0 35488-3 0 9996 2 25886 52.0020 351.9600 0003546 109.3696 55.9441 11.27669754145529 GLOBALSTAR M058 1 25907U 99049A 26034.51463713 -.00000092 00000+0 -10101-3 0 9997 2 25907 51.9909 211.4640 0002183 22.7871 337.3060 11.93208103569153 GLOBALSTAR M050 1 25908U 99049B 26034.40978123 -.00000080 00000+0 97902-4 0 9993 2 25908 51.9958 202.1440 0010042 128.7735 244.9912 12.07464384176123 GLOBALSTAR M033 1 25909U 99049C 26034.33416722 -.00000019 00000+0 69581-3 0 9991 2 25909 51.9918 58.2200 0014196 21.4248 338.7191 12.20302018563969 GLOBALSTAR M055 1 25910U 99049D 26034.47427648 -.00000072 00000+0 19226-3 0 9997 2 25910 52.0026 57.3083 0006799 249.9540 110.0580 12.29440204196733 GLOBALSTAR M057 1 25943U 99058A 26034.46703709 -.00000060 00000+0 29503-3 0 9993 2 25943 51.9992 51.8255 0002710 128.2848 231.8245 12.24832666195278 GLOBALSTAR M059 1 25944U 99058B 26034.17999220 -.00000019 00000+0 83745-3 0 9999 2 25944 52.0037 302.2585 0001090 63.4255 103.4449 11.99992289601778 GLOBALSTAR M056 1 25945U 99058C 26034.08253937 -.00000058 00000+0 34461-3 0 9992 2 25945 51.9976 298.5643 0000629 330.2174 167.5690 12.04784169190453 GLOBALSTAR M031 1 25946U 99058D 26034.55092171 -.00000039 00000+0 52732-3 0 9996 2 25946 51.9941 175.7495 0000314 309.2519 132.7681 12.16048385192695 GLOBALSTAR M039 1 25961U 99062A 26034.05311789 -.00000064 00000+0 22291-3 0 9997 2 25961 51.9850 285.5360 0003002 123.6629 236.4525 12.62340754209378 GLOBALSTAR M034 1 25962U 99062B 26034.48400414 -.00000073 00000+0 12840-3 0 9998 2 25962 51.9867 130.1444 0015057 119.0111 322.7548 11.79455513165689 GLOBALSTAR M029 1 25963U 99062C 26034.50975697 -.00000108 00000+0 -26667-3 0 9994 2 25963 51.9779 189.2002 0002389 183.8212 219.9050 11.99907989196895 GLOBALSTAR M061 1 25964U 99062D 26034.26943536 -.00000080 00000+0 14667-5 0 9992 2 25964 51.9819 317.8080 0006575 40.9016 124.3124 11.76777317148389 GLOBALSTAR M063 1 26081U 00008A 26034.45945515 -.00000089 00000+0 -96168-4 0 9990 2 26081 51.9920 222.4785 0005353 46.5869 327.1430 11.86180900185029 GLOBALSTAR M062 1 26082U 00008B 26034.46460718 -.00000198 00000+0 -71019-3 0 9997 2 26082 51.9848 135.6550 0006810 240.7388 199.8746 12.43480220525391 GLOBALSTAR M060 1 26083U 00008C 26034.46904707 -.00000002 00000+0 88015-3 0 9996 2 26083 52.0020 128.3738 0003036 220.3401 222.0508 12.17674393180546 GLOBALSTAR M064 1 26084U 00008D 26034.24839564 -.00000041 00000+0 59783-3 0 9994 2 26084 52.0058 319.1411 0001671 118.6317 241.4684 11.88540082194576 GLOBALSTAR M065 1 31571U 07020A 26033.95450641 -.00000073 00000+0 17361-3 0 9995 2 31571 51.9872 243.8780 0010838 97.7411 51.1353 12.62019953862543 GLOBALSTAR M069 1 31573U 07020C 26034.39699243 -.00000041 00000+0 48067-3 0 9991 2 31573 52.0022 270.8074 0000931 211.3559 320.0437 12.23467804862427 GLOBALSTAR M072 1 31574U 07020D 26034.53423851 -.00000058 00000+0 35439-3 0 9995 2 31574 51.9930 96.0668 0001378 78.2605 61.3940 11.91655381859040 GLOBALSTAR M071 1 31576U 07020F 26034.10885615 -.00000105 00000+0 -13900-3 0 9993 2 31576 52.0079 303.7502 0000386 141.9226 7.4806 12.18264808523082 GLOBALSTAR M067 1 32263U 07048A 26034.37591895 -.00000067 00000+0 22274-3 0 9990 2 32263 51.9728 79.4456 0001617 120.6103 252.3371 12.40684325838189 GLOBALSTAR M070 1 32264U 07048B 26034.50470094 -.00000112 00000+0 -48298-4 0 9990 2 32264 51.9742 143.8077 0000609 109.1817 332.5458 12.62329767842884 GLOBALSTAR M066 1 32265U 07048C 26034.45121443 -.00000087 00000+0 65984-4 0 9997 2 32265 51.9592 81.8306 0005258 123.9571 341.0474 12.30384160843764 GLOBALSTAR M068 1 32266U 07048D 26034.28825316 -.00000071 00000+0 18311-3 0 9993 2 32266 51.9905 317.7752 0000724 324.7946 202.4956 12.62839398846759 GLOBALSTAR M079 1 37188U 10054A 26034.47649132 -.00000111 00000+0 -38714-4 0 9999 2 37188 52.0027 155.7042 0001052 98.3729 337.1096 12.62270153705667 GLOBALSTAR M074 1 37189U 10054B 26034.50377914 -.00000116 00000+0 -68990-4 0 9994 2 37189 52.0005 154.9088 0000982 116.1718 322.4304 12.62265611706273 GLOBALSTAR M076 1 37190U 10054C 26034.53076341 -.00000115 00000+0 -62643-4 0 9997 2 37190 52.0016 155.0186 0001159 111.5413 329.3484 12.62269990705993 GLOBALSTAR M077 1 37191U 10054D 26034.52124975 -.00000079 00000+0 -18304-4 0 9998 2 37191 51.9957 158.7655 0001520 109.8903 333.1104 11.68178319705523 GLOBALSTAR M075 1 37192U 10054E 26034.45087088 -.00000123 00000+0 -10917-3 0 9995 2 37192 51.9924 197.3895 0000936 93.8182 284.7210 12.62264034705056 GLOBALSTAR M073 1 37193U 10054F 26034.29791792 -.00000084 00000+0 10950-3 0 9994 2 37193 52.0061 111.8537 0000898 111.5541 290.0373 12.62269124707023 GLOBALSTAR M083 1 37739U 11033A 26034.40429922 -.00000094 00000+0 54240-4 0 9996 2 37739 51.9865 59.9404 0000597 101.2717 5.7369 12.62266899676051 GLOBALSTAR M088 1 37740U 11033B 26034.31191214 -.00000044 00000+0 33080-3 0 9991 2 37740 52.0239 326.3262 0000514 63.6056 103.0161 12.62261023671588 GLOBALSTAR M091 1 37741U 11033C 26034.16654633 -.00000073 00000+0 17039-3 0 9992 2 37741 52.0004 289.9353 0000844 58.3875 106.4355 12.62269350672359 GLOBALSTAR M085 1 37742U 11033D 26034.51640756 -.00000102 00000+0 11117-4 0 9998 2 37742 52.0099 240.0434 0001093 69.6784 306.2342 12.62268970672918 GLOBALSTAR M081 1 37743U 11033E 26034.02106583 -.00000087 00000+0 95343-4 0 9995 2 37743 51.9939 244.1390 0001110 81.7681 82.8355 12.62262147672996 GLOBALSTAR M089 1 37744U 11033F 26034.50864218 -.00000123 00000+0 -10519-3 0 9998 2 37744 51.9909 196.8376 0001039 112.4866 288.6235 12.62264085673906 GLOBALSTAR M084 1 38040U 11080A 26034.29312560 -.00000087 00000+0 92547-4 0 9994 2 38040 52.0013 64.9038 0000652 139.9743 300.8835 12.62267589651857 GLOBALSTAR M080 1 38041U 11080B 26034.51786701 -.00000078 00000+0 14115-3 0 9996 2 38041 52.0063 65.8920 0000271 40.0734 112.1478 12.62265971652000 GLOBALSTAR M082 1 38042U 11080C 26034.45772463 -.00000104 00000+0 -19189-5 0 9999 2 38042 52.0094 21.5613 0000429 34.0124 134.6108 12.62267103652709 GLOBALSTAR M092 1 38043U 11080D 26034.41200078 -.00000086 00000+0 97711-4 0 9998 2 38043 52.0080 112.0902 0000678 117.2757 323.5390 12.62269843651157 GLOBALSTAR M090 1 38044U 11080E 26034.40434525 -.00000108 00000+0 -21304-4 0 9995 2 38044 52.0147 15.6374 0000500 70.3991 94.2584 12.62266352652819 GLOBALSTAR M086 1 38045U 11080F 26034.42868618 -.00000099 00000+0 27908-4 0 9996 2 38045 51.9919 15.7106 0001447 105.4781 62.7701 12.62282297652768 GLOBALSTAR M097 1 39072U 13005A 26034.42041522 -.00000078 00000+0 14118-3 0 9998 2 39072 52.0053 290.5352 0000940 70.5098 289.5870 12.62268531600018 GLOBALSTAR M093 1 39073U 13005B 26034.39419549 -.00000073 00000+0 17022-3 0 9995 2 39073 52.0107 283.9120 0001187 65.8966 294.2025 12.62272498599966 GLOBALSTAR M094 1 39074U 13005C 26034.47342381 -.00000121 00000+0 -97300-4 0 9997 2 39074 51.9933 197.9187 0001181 87.8167 272.2835 12.62266824601583 GLOBALSTAR M096 1 39075U 13005D 26034.01136460 -.00000086 00000+0 99339-4 0 9990 2 39075 52.0052 248.0216 0001126 71.7064 288.3925 12.62262964600449 GLOBALSTAR M078 1 39076U 13005E 26034.06426170 -.00000019 00000+0 47169-3 0 9995 2 39076 51.9899 332.0562 0000986 4.6834 355.4041 12.62276499599077 GLOBALSTAR M095 1 39077U 13005F 26034.48669116 -.00000085 00000+0 10279-3 0 9996 2 39077 52.0107 328.1849 0000925 40.5712 319.5224 12.62268110598987 GLOBALSTAR M087 1 52888U 22064A 26034.18318223 -.00000086 00000+0 97539-4 0 9999 2 52888 51.9993 110.4229 0000749 98.2339 261.8613 12.62262694174214